• In Deutschland
  • Länderverzeichnis
  • Für 7 Tage
  • Wassertemperatur
  • Satellitenkarten
  • Wetterkarte
  • Widgets
  • user-avatar
    Anmelden

    Stündliche Wetter Ludwigsburg

    Heute, 18 Februar, Sonntag

    Zeit Temperatur Niederschläge Wind Luftdruck Luftfeuchtigkeit
    00:00 0°C° 0 mm 1 m/S 743 mmHg 94%
    01:00 -1°C° 0 mm 1 m/S 743 mmHg 94%
    02:00 -1°C° 0 mm 1 m/S 743 mmHg 94%
    03:00 -2°C° 0 mm 0 m/S 744 mmHg 94%
    04:00 -3°C° 0 mm 0 m/S 744 mmHg 94%
    05:00 -3°C° 0 mm 0 m/S 744 mmHg 94%
    06:00 -3°C° 0 mm 0 m/S 744 mmHg 94%
    07:00 -4°C° 0 mm 0 m/S 744 mmHg 94%
    08:00 -1°C° 0 mm 1 m/S 744 mmHg 92%
    09:00 0°C° 0 mm 1 m/S 744 mmHg 89%
    10:00 +1°C° 0 mm 1 m/S 744 mmHg 86%
    11:00 +2°C° 0 mm 1 m/S 744 mmHg 84%
    12:00 +2°C° 0 mm 2 m/S 744 mmHg 82%
    13:00 +3°C° 0 mm 2 m/S 744 mmHg 80%
    14:00 +3°C° 0 mm 2 m/S 743 mmHg 81%
    15:00 +3°C° 0 mm 2 m/S 743 mmHg 81%
    16:00 +3°C° 0 mm 2 m/S 743 mmHg 81%
    17:00 +2°C° 0 mm 2 m/S 743 mmHg 83%
    18:00 +1°C° 0 mm 2 m/S 743 mmHg 86%
    19:00 +1°C° 0 mm 2 m/S 743 mmHg 88%
    20:00 -1°C° 0 mm 2 m/S 743 mmHg 89%
    21:00 -1°C° 0 mm 2 m/S 743 mmHg 89%
    22:00 +1°C° 0 mm 1 m/S 743 mmHg 89%
    23:00 0°C° 0 mm 1 m/S 742 mmHg 90%

    Morgen, 19 Februar, Montag

    Zeit Temperatur Niederschläge Wind Luftdruck Luftfeuchtigkeit
    00:00 0°C° 0 mm 1 m/S 742 mmHg 90%
    01:00 -1°C° 0 mm 1 m/S 742 mmHg 91%
    02:00 -1°C° 0 mm 1 m/S 742 mmHg 92%
    03:00 -2°C° 0 mm 1 m/S 741 mmHg 92%
    04:00 -2°C° 0 mm 1 m/S 741 mmHg 93%
    05:00 -2°C° 0 mm 1 m/S 741 mmHg 93%
    06:00 -2°C° 0 mm 1 m/S 741 mmHg 93%
    07:00 -2°C° 0 mm 1 m/S 740 mmHg 93%
    08:00 -1°C° 0 mm 1 m/S 740 mmHg 89%
    09:00 -2°C° 0 mm 2 m/S 740 mmHg 86%
    10:00 -1°C° 0 mm 2 m/S 740 mmHg 83%
    11:00 -1°C° 0 mm 2 m/S 740 mmHg 80%
    12:00 +2°C° 0 mm 1 m/S 740 mmHg 77%
    13:00 +3°C° 0 mm 1 m/S 739 mmHg 74%
    14:00 +3°C° 0 mm 1 m/S 739 mmHg 73%
    15:00 +3°C° 0 mm 1 m/S 739 mmHg 73%
    16:00 +4°C° 0 mm 1 m/S 739 mmHg 73%
    17:00 +3°C° 0 mm 1 m/S 739 mmHg 77%
    18:00 +1°C° 0 mm 1 m/S 739 mmHg 81%
    19:00 -1°C° 0 mm 0 m/S 739 mmHg 84%
    20:00 -1°C° 0 mm 0 m/S 739 mmHg 85%
    21:00 -1°C° 0 mm 0 m/S 739 mmHg 86%
    22:00 -2°C° 0 mm 0 m/S 739 mmHg 87%
    23:00 -2°C° 0 mm 0 m/S 739 mmHg 87%

    übermorgen, 20 Februar, Dienstag

    Zeit Temperatur Niederschläge Wind Luftdruck Luftfeuchtigkeit
    00:00 -2°C° 0 mm 0 m/S 738 mmHg 88%
    01:00 -3°C° 0 mm 0 m/S 738 mmHg 88%
    02:00 -3°C° 0 mm 0 m/S 738 mmHg 88%
    03:00 -3°C° 0 mm 0 m/S 738 mmHg 88%
    04:00 -3°C° 0 mm 0 m/S 738 mmHg 88%
    05:00 -3°C° 0 mm 0 m/S 737 mmHg 88%
    06:00 -3°C° 0 mm 0 m/S 737 mmHg 88%
    07:00 -3°C° 0 mm 0 m/S 737 mmHg 88%
    08:00 -2°C° 0 mm 0 m/S 737 mmHg 83%
    09:00 -1°C° 0 mm 0 m/S 737 mmHg 79%
    10:00 +1°C° 0 mm 0 m/S 738 mmHg 74%
    11:00 +3°C° 0 mm 1 m/S 737 mmHg 71%
    12:00 +4°C° 0 mm 1 m/S 737 mmHg 67%
    13:00 +4°C° 0 mm 1 m/S 737 mmHg 64%
    14:00 +4°C° 0 mm 1 m/S 737 mmHg 65%
    15:00 +4°C° 0 mm 1 m/S 737 mmHg 65%
    16:00 +3°C° 0 mm 2 m/S 737 mmHg 66%
    17:00 +2°C° 0 mm 2 m/S 737 mmHg 71%
    18:00 +2°C° 0 mm 1 m/S 737 mmHg 76%
    19:00 +1°C° 0 mm 1 m/S 737 mmHg 81%
    20:00 0°C° 0 mm 1 m/S 738 mmHg 82%
    21:00 0°C° 0 mm 1 m/S 738 mmHg 83%
    22:00 -1°C° 0 mm 1 m/S 738 mmHg 85%
    23:00 -1°C° 0 mm 1 m/S 738 mmHg 86%

    21 Februar, Mittwoch

    Zeit Temperatur Niederschläge Wind Luftdruck Luftfeuchtigkeit
    00:00 -1°C° 0 mm 1 m/S 738 mmHg 87%
    01:00 -1°C° 0 mm 1 m/S 738 mmHg 88%
    02:00 -2°C° 0 mm 1 m/S 738 mmHg 89%
    03:00 -2°C° 0 mm 1 m/S 738 mmHg 89%
    04:00 -2°C° 0 mm 1 m/S 738 mmHg 90%
    05:00 -2°C° 0 mm 1 m/S 739 mmHg 90%
    06:00 -2°C° 0 mm 1 m/S 739 mmHg 90%
    07:00 -4°C° 0 mm 2 m/S 739 mmHg 90%
    08:00 -3°C° 0 mm 2 m/S 739 mmHg 85%
    09:00 -2°C° 0 mm 2 m/S 739 mmHg 81%
    10:00 -1°C° 0 mm 3 m/S 739 mmHg 76%
    11:00 0°C° 0 mm 3 m/S 739 mmHg 73%
    12:00 +1°C° 0 mm 3 m/S 739 mmHg 69%
    13:00 +2°C° 0 mm 3 m/S 738 mmHg 66%
    14:00 +2°C° 0 mm 3 m/S 738 mmHg 66%
    15:00 +2°C° 0 mm 3 m/S 738 mmHg 65%
    16:00 +2°C° 0 mm 3 m/S 737 mmHg 65%
    17:00 +1°C° 0 mm 3 m/S 737 mmHg 69%
    18:00 0°C° 0 mm 3 m/S 737 mmHg 72%
    19:00 -1°C° 0 mm 3 m/S 737 mmHg 75%
    20:00 -2°C° 0 mm 3 m/S 737 mmHg 77%
    21:00 -2°C° 0 mm 3 m/S 737 mmHg 78%
    22:00 -4°C° 0 mm 3 m/S 737 mmHg 79%
    23:00 -4°C° 0 mm 3 m/S 737 mmHg 80%

    22 Februar, Donnerstag

    Zeit Temperatur Niederschläge Wind Luftdruck Luftfeuchtigkeit
    00:00 -4°C° 0 mm 3 m/S 737 mmHg 81%
    01:00 -4°C° 0 mm 4 m/S 736 mmHg 82%
    02:00 -4°C° 0 mm 4 m/S 736 mmHg 82%
    03:00 -5°C° 0 mm 4 m/S 736 mmHg 82%
    04:00 -5°C° 0 mm 4 m/S 736 mmHg 82%
    05:00 -5°C° 0 mm 4 m/S 735 mmHg 82%
    06:00 -5°C° 0 mm 4 m/S 735 mmHg 82%
    07:00 -5°C° 0 mm 4 m/S 735 mmHg 81%
    08:00 -5°C° 0 mm 5 m/S 735 mmHg 77%
    09:00 -5°C° 0 mm 5 m/S 735 mmHg 73%
    10:00 -4°C° 0 mm 5 m/S 735 mmHg 69%
    11:00 -3°C° 0 mm 6 m/S 734 mmHg 66%
    12:00 -2°C° 0 mm 6 m/S 734 mmHg 63%
    13:00 -2°C° 0 mm 6 m/S 734 mmHg 60%
    14:00 -2°C° 0,1 mm 6 m/S 733 mmHg 60%
    15:00 -2°C° 0,1 mm 6 m/S 733 mmHg 61%
    16:00 -1°C° 0,1 mm 5 m/S 733 mmHg 62%
    17:00 -1°C° 0,1 mm 5 m/S 733 mmHg 65%
    18:00 -2°C° 0,1 mm 5 m/S 733 mmHg 68%
    19:00 -2°C° 0,1 mm 5 m/S 733 mmHg 71%
    20:00 -4°C° 0,1 mm 5 m/S 733 mmHg 73%
    21:00 -4°C° 0,1 mm 5 m/S 733 mmHg 76%
    22:00 -4°C° 0,1 mm 5 m/S 733 mmHg 78%
    23:00 -4°C° 0,1 mm 5 m/S 733 mmHg 79%

    23 Februar, Freitag

    Zeit Temperatur Niederschläge Wind Luftdruck Luftfeuchtigkeit
    00:00 -5°C° 0,1 mm 5 m/S 733 mmHg 80%
    01:00 -4°C° 0,1 mm 4 m/S 733 mmHg 80%
    02:00 -4°C° 0,1 mm 4 m/S 733 mmHg 80%
    03:00 -4°C° 0,1 mm 4 m/S 733 mmHg 80%
    04:00 -4°C° 0,1 mm 4 m/S 733 mmHg 80%
    05:00 -4°C° 0 mm 4 m/S 734 mmHg 80%
    06:00 -4°C° 0 mm 4 m/S 734 mmHg 79%
    07:00 -4°C° 0 mm 4 m/S 734 mmHg 79%
    08:00 -4°C° 0 mm 4 m/S 734 mmHg 76%
    09:00 -4°C° 0 mm 5 m/S 735 mmHg 73%
    10:00 -4°C° 0 mm 5 m/S 735 mmHg 71%
    11:00 -2°C° 0 mm 5 m/S 735 mmHg 67%
    12:00 -2°C° 0 mm 5 m/S 735 mmHg 64%
    13:00 -1°C° 0 mm 5 m/S 736 mmHg 61%
    14:00 -1°C° 0 mm 5 m/S 736 mmHg 59%
    15:00 -1°C° 0 mm 4 m/S 736 mmHg 58%
    16:00 -1°C° 0 mm 4 m/S 736 mmHg 56%
    17:00 -2°C° 0 mm 4 m/S 736 mmHg 60%
    18:00 -3°C° 0 mm 4 m/S 737 mmHg 63%
    19:00 -4°C° 0 mm 4 m/S 737 mmHg 67%
    20:00 -5°C° 0 mm 4 m/S 738 mmHg 67%
    21:00 -5°C° 0 mm 4 m/S 738 mmHg 68%
    22:00 -7°C° 0 mm 4 m/S 739 mmHg 68%
    23:00 -7°C° 0 mm 4 m/S 739 mmHg 66%
    Mehr zeigen